Weather History for Guymon, OK

Change the Weather History Date:

Wednesday, August 14, 2013

  Actual Average Record
Temperature  
Mean Temperature 71 °F 78 °F  
Max Temperature 79 °F 92 °F 105 °F (2010)
Min Temperature 63 °F 65 °F 55 °F (1999)
Degree Days  
Heating Degree Days 0 0  
Month to date heating degree days 0 0  
Since 1 June heating degree days 0 8  
Since 1 July heating degree days 0 0  
Cooling Degree Days 6 13  
Month to date cooling degree days 185 196  
Year to date cooling degree days 1298 1038  
Since 1 June cooling degree days 1094 930  
Growing Degree Days 20 (Base 50)    
Moisture  
Dew Point 64 °F    
Average Humidity 86    
Maximum Humidity 93    
Minimum Humidity 79    
Precipitation  
Precipitation 0.75 in 0.10 in 0.75 in (2013)
Month to date precipitation 4.20 1.20  
Year to date precipitation 10.55 13.05  
Snow  
Snow 0.00 in - - ()
Month to date snowfall 0.0  
Since 1 June snowfall T  
Since 1 July snowfall 0.0  
Snow Depth 0.00 in    
Sea Level Pressure  
Sea Level Pressure 30.08 in    
Wind  
Wind Speed 7 mph (ESE)    
Max Wind Speed 37 mph    
Max Gust Speed 48 mph    
Visibility 8 miles    
Events Rain , Thunderstorm    
T = Trace of Precipitation, MM = Missing Value Source: NWS Daily Summary

Daily Weather History Graph

Daily Weather History Graph

Search for Another Location

Airport:

Trip Planner

Search our weather history database for the weather conditions in past years. The results will help you decide how hot, cold, wet, or windy it might be!

Date:

Astronomy

Aug. 14, 2013 Rise Set
Actual Time 7:02 AM CDT 8:37 PM CDT
Civil Twilight 6:35 AM CDT 9:05 PM CDT
Nautical Twilight 6:02 AM CDT 9:38 PM CDT
Astronomical Twilight 5:27 AM CDT 10:13 PM CDT
Moon 2:50 PM CDT (8/14) 12:28 AM CDT (8/14)
Length of Visible Light 14h 30m
Length of Day
13h 35m
First Quarter, 53% of the Moon is Illuminated
Aug 14
First Quarter
Aug 20
Full
Aug 28
Last Quarter
Sep 5
New
Sep 12
First Quarter

Hourly Weather History & Observations

Time (CDT) Temp. Dew Point Humidity Pressure Visibility Wind Dir Wind Speed Gust Speed Precip Events Conditions
12:53 AM 66.0 °F 63.0 °F 90% 30.07 in 10.0 mi SE 4.6 mph - N/A   Clear
1:53 AM 66.0 °F 63.0 °F 90% 30.03 in 10.0 mi ESE 8.1 mph - N/A   Clear
2:53 AM 66.0 °F 63.0 °F 90% 30.04 in 10.0 mi SSE 3.5 mph - N/A   Partly Cloudy
3:53 AM 66.9 °F 63.0 °F 87% 30.04 in 10.0 mi Calm Calm - N/A   Mostly Cloudy
4:53 AM 66.9 °F 64.0 °F 90% 30.04 in 10.0 mi NE 3.5 mph - N/A   Overcast
5:20 AM 66.2 °F 62.6 °F 88% 30.18 in 10.0 mi ENE 3.5 mph - N/A   Overcast
5:53 AM 66.0 °F 63.0 °F 90% 30.05 in 10.0 mi ENE 4.6 mph - N/A   Overcast
6:18 AM 64.4 °F 62.6 °F 94% 30.17 in 10.0 mi East 5.8 mph - N/A   Overcast
6:39 AM 64.4 °F 62.6 °F 94% 30.17 in 8.0 mi East 3.5 mph - N/A   Mostly Cloudy
6:53 AM 64.0 °F 63.0 °F 96% 30.05 in 7.0 mi East 5.8 mph - N/A   Overcast
7:53 AM 64.0 °F 63.0 °F 96% 30.08 in 5.0 mi East 5.8 mph - N/A   Overcast
8:53 AM 66.9 °F 64.0 °F 90% 30.08 in 10.0 mi ESE 6.9 mph - N/A   Overcast
9:53 AM 66.9 °F 64.0 °F 90% 30.08 in 8.0 mi SSE 9.2 mph - N/A   Overcast
10:53 AM 70.0 °F 64.9 °F 84% 30.09 in 10.0 mi SSE 9.2 mph - N/A   Overcast
11:53 AM 71.1 °F 64.9 °F 81% 30.09 in 10.0 mi SE 9.2 mph - N/A   Overcast
12:06 PM 71.6 °F 66.2 °F 83% 30.20 in 10.0 mi SE 11.5 mph - N/A   Overcast
12:38 PM 71.6 °F 64.4 °F 78% 30.19 in 10.0 mi SSE 11.5 mph 19.6 mph N/A   Overcast
12:53 PM 71.1 °F 64.9 °F 81% 30.08 in 10.0 mi SSE 12.7 mph - N/A   Overcast
1:19 PM 71.6 °F 64.4 °F 78% 30.18 in 10.0 mi SSE 11.5 mph 18.4 mph N/A   Overcast
1:53 PM - - N/A% 30.16 in 10.0 mi SSE 10.4 mph - N/A   Overcast
2:53 PM - - N/A% 30.13 in 10.0 mi SE 10.4 mph - N/A   Partly Cloudy
3:53 PM - - N/A% 30.10 in 10.0 mi SE 9.2 mph 19.6 mph N/A   Unknown
4:34 PM 78.8 °F 64.4 °F 61% 30.06 in 10.0 mi SE 15.0 mph 23.0 mph N/A Thunderstorm Partly Cloudy
4:53 PM 75.9 °F 66.0 °F 71% 29.95 in 10.0 mi East 15.0 mph 23.0 mph 0.00 in Rain , Thunderstorm Light Thunderstorms and Rain
5:21 PM 66.2 °F 62.6 °F 88% 30.12 in 2.5 mi West 24.2 mph 48.3 mph 0.02 in Rain , Thunderstorm Heavy Thunderstorms and Rain
5:24 PM 68.0 °F 64.4 °F 88% 30.14 in 1.2 mi NW 17.3 mph 48.3 mph 0.13 in Rain , Thunderstorm Heavy Thunderstorms and Rain
5:32 PM 68.0 °F 66.2 °F 94% 30.15 in 1.2 mi North 21.9 mph 34.5 mph 0.42 in Rain , Thunderstorm Heavy Thunderstorms and Rain
5:35 PM 66.2 °F 64.4 °F 94% 30.14 in 1.0 mi North 25.3 mph 34.5 mph 0.47 in Rain , Thunderstorm Heavy Thunderstorms and Rain
5:43 PM 62.6 °F 60.8 °F 94% 30.11 in 1.0 mi NE 25.3 mph 34.5 mph 0.62 in Rain , Thunderstorm Heavy Thunderstorms and Rain
5:53 PM 66.0 °F 61.0 °F 84% 30.01 in 2.0 mi East 19.6 mph 27.6 mph 0.74 in Rain , Thunderstorm Rain
5:55 PM 66.2 °F 60.8 °F 83% 30.11 in 3.0 mi East 18.4 mph 27.6 mph 0.01 in Rain , Thunderstorm Rain
5:58 PM 66.2 °F 62.6 °F 88% 30.10 in 6.0 mi ESE 19.6 mph 27.6 mph 0.01 in Rain , Thunderstorm Light Rain
6:22 PM 69.8 °F 64.4 °F 83% 30.08 in 10.0 mi ESE 15.0 mph 21.9 mph 0.01 in Rain Light Rain
6:53 PM 72.0 °F 66.0 °F 81% 29.95 in 10.0 mi SE 12.7 mph 21.9 mph 0.01 in   Clear
7:53 PM 71.1 °F 64.9 °F 81% 29.95 in 10.0 mi South 9.2 mph - N/A   Scattered Clouds
8:53 PM 69.1 °F 64.0 °F 84% 29.96 in 10.0 mi Calm Calm - N/A   Clear
9:53 PM 68.0 °F 62.1 °F 81% 30.00 in 10.0 mi Calm Calm - N/A   Clear
10:53 PM 66.9 °F 62.1 °F 84% 30.02 in 10.0 mi Calm Calm - N/A   Clear
11:53 PM 66.9 °F 62.1 °F 84% 30.03 in 10.0 mi Calm Calm - N/A   Clear